EW9652 Weather Reports


time (UTC)temp
F
wind
direction
speed
knots
gust
knots
rain 1hr
in
rain 24hr
in
rain mn
in
humidity
%
barometer
mb
20260906212139 93 94 11.3 17.4 0.00 1.17 0.02 31 1009.0
20260906211636 93 150 10.4 20.9 0.00 1.17 0.02 32 1009.1
20260906211135 93 126 10.4 20.9 0.00 1.17 0.02 32 1009.2
20260906210636 93 162 9.6 18.2 0.00 1.17 0.02 32 1009.4
20260906210405 93 151 10.4 18.2 0.00 1.17 0.02 32 1009.4
20260906205633 93 136 9.6 18.2 0.00 1.17 0.02 32 1009.5
20260906205135 94 142 8.7 16.5 0.00 1.17 0.02 33 1009.5
20260906204633 93 110 8.7 15.6 0.00 1.17 0.02 32 1009.6
20260906204131 93 200 8.7 15.6 0.00 1.17 0.02 33 1009.6
20260906203632 92 158 9.6 16.5 0.00 1.17 0.02 34 1009.7
20260906203130 92 122 8.7 16.5 0.00 1.17 0.02 34 1009.7
20260906202629 93 170 7.8 15.6 0.00 1.17 0.02 35 1009.6
20260906202129 92 139 7.8 14.8 0.00 1.17 0.02 34 1009.7
20260906201900 92 128 9.6 20.9 0.00 1.17 0.02 33 1009.7
20260906201128 93 172 8.7 20.9 0.00 1.17 0.02 33 1009.9
20260906200857 93 189 7.0 13.9 0.00 1.17 0.02 33 1009.8
20260906200357 93 141 7.0 13.9 0.00 1.17 0.02 33 1009.9
20260906195625 93 148 6.1 11.3 0.00 1.17 0.02 33 1009.8
20260906195125 93 206 7.0 11.3 0.00 1.17 0.02 34 1009.9
20260906194623 92 167 7.0 13.9 0.00 1.17 0.02 35 1009.9
20260906194123 92 169 7.0 13.9 0.00 1.17 0.02 34 1010.1
20260906193621 92 121 7.0 13.9 0.00 1.17 0.02 34 1010.2
20260906193353 92 181 7.8 14.8 0.00 1.17 0.02 35 1010.2
20260906192622 92 127 8.7 16.5 0.00 1.17 0.02 35 1010.4
20260906192122 91 150 7.8 16.5 0.00 1.17 0.02 36 1010.4
20260906191619 92 160 7.8 17.4 0.00 1.17 0.02 35 1010.4
20260906191350 92 174 8.7 17.4 0.00 1.17 0.02 36 1010.6
20260906190619 91 131 8.7 14.8 0.00 1.17 0.02 37 1010.7
20260906190119 92 148 7.0 14.8 0.00 1.17 0.02 37 1010.7
20260906185617 92 130 5.2 12.2 0.00 1.17 0.02 37 1010.8
20260906185115 91 153 7.0 13.0 0.00 1.17 0.02 37 1010.8
20260906184615 91 147 6.1 13.0 0.00 1.17 0.02 37 1011.0
20260906184115 91 147 7.0 13.9 0.00 1.17 0.02 39 1011.0
20260906183613 91 204 8.7 13.9 0.00 1.17 0.02 39 1011.1
20260906183114 90 205 8.7 13.9 0.00 1.17 0.02 39 1011.1
20260906182613 91 204 7.0 13.0 0.00 1.17 0.02 39 1011.2
20260906182113 91 123 7.8 20.9 0.00 1.17 0.02 39 1011.3
20260906181843 90 165 7.8 20.9 0.00 1.17 0.02 40 1011.4
20260906181110 90 163 7.8 13.0 0.00 1.17 0.02 40 1011.4
20260906180840 90 165 9.6 15.6 0.00 1.17 0.02 40 1011.6
20260906180110 90 216 8.7 15.6 0.00 1.17 0.02 39 1011.6
20260906175607 90 192 7.8 14.8 0.00 1.17 0.02 41 1011.7
20260906175107 89 206 8.7 15.6 0.00 1.17 0.02 41 1011.8
20260906174607 89 213 9.6 15.6 0.00 1.17 0.02 41 1011.8
20260906174105 89 163 8.7 13.9 0.00 1.17 0.02 42 1011.9
20260906173606 89 198 8.7 13.9 0.00 1.17 0.02 42 1011.9
20260906173106 89 179 9.6 17.4 0.00 1.17 0.02 42 1012.0
20260906172607 89 156 9.6 17.4 0.00 1.17 0.02 42 1012.1
20260906172105 88 163 8.7 17.4 0.00 1.17 0.02 43 1012.0
20260906171609 88 200 8.7 13.9 0.00 1.17 0.02 45 1012.2
20260906171605 88 163 8.7 13.9 0.00 1.17 0.02 43 1012.1
20260906170603 88 186 8.7 13.9 0.00 1.17 0.02 44 1012.2
20260906165601 87 178 9.6 13.9 0.00 1.17 0.02 47 1012.2
20260906165101 87 209 9.6 15.6 0.00 1.17 0.02 45 1012.2
20260906164559 87 164 9.6 15.6 0.00 1.17 0.02 46 1012.2
20260906164101 87 164 7.8 13.0 0.00 1.17 0.02 49 1012.3
20260906163558 87 208 7.8 13.0 0.00 1.17 0.02 50 1012.3
20260906163055 86 172 7.8 13.0 0.00 1.17 0.02 51 1012.2
20260906162556 86 281 7.8 12.2 0.00 1.17 0.02 52 1012.2
20260906162055 85 206 7.8 13.9 0.00 1.17 0.02 52 1012.2
20260906161555 85 203 7.8 13.9 0.00 1.17 0.02 52 1012.2
20260906161055 85 224 7.8 12.2 0.00 1.17 0.02 53 1012.3
20260906160554 84 244 8.7 12.2 0.00 1.17 0.02 53 1012.3
20260906160054 84 159 8.7 11.3 0.00 1.17 0.02 54 1012.3
20260906155551 84 204 7.8 12.2 0.00 1.17 0.02 56 1012.3
20260906155052 83 214 7.0 12.2 0.00 1.17 0.02 56 1012.4
20260906154820 83 179 6.1 12.2 0.00 1.17 0.02 57 1012.4
20260906154053 83 229 6.1 11.3 0.00 1.17 0.02 58 1012.3
20260906154049 83 224 6.1 11.3 0.00 1.17 0.02 58 1012.4
20260906153657 82 222 6.1 11.3 0.00 1.17 0.02 60 1012.4
20260906152548 82 157 7.0 11.3 0.00 1.17 0.02 59 1012.3
20260906152047 82 206 6.1 11.3 0.00 1.17 0.02 60 1012.2
20260906151545 81 212 7.0 11.3 0.00 1.17 0.02 60 1012.3
20260906151046 81 207 7.0 11.3 0.00 1.17 0.02 61 1012.2
20260906150544 80 198 7.0 11.3 0.00 1.17 0.02 61 1012.3
20260906150043 80 195 6.1 11.3 0.00 1.17 0.02 62 1012.3
20260906145541 80 143 6.1 11.3 0.00 1.17 0.02 62 1012.3
20260906145041 78 173 6.1 10.4 0.00 1.17 0.02 64 1012.3
20260906144812 78 225 6.1 10.4 0.00 1.17 0.02 65 1012.3
20260906144041 77 217 7.0 10.4 0.00 1.17 0.02 65 1012.3
20260906143545 76 227 6.1 10.4 0.00 1.17 0.02 64 1012.3
20260906143541 77 176 7.0 10.4 0.00 1.17 0.02 64 1012.4
20260906142540 76 203 5.2 8.7 0.00 1.17 0.02 66 1012.3
20260906142307 76 213 6.1 10.4 0.00 1.17 0.02 66 1012.3
20260906141537 75 188 7.0 10.4 0.00 1.17 0.02 66 1012.2
20260906141034 75 193 6.1 9.6 0.00 1.17 0.02 66 1012.2
20260906140806 75 203 5.2 9.6 0.01 1.17 0.02 66 1012.1
20260906140037 75 193 5.2 7.8 0.01 1.17 0.02 67 1012.1
20260906135535 74 194 5.2 7.8 0.01 1.17 0.02 68 1012.1
20260906135035 74 162 5.2 7.0 0.01 1.17 0.02 68 1012.1
20260906134535 73 186 4.3 7.0 0.01 1.17 0.02 69 1012.0
20260906134035 73 141 4.3 6.1 0.01 1.17 0.02 69 1012.0
20260906133534 72 191 3.5 6.1 0.01 1.17 0.02 70 1012.0
20260906133035 72 191 3.5 5.2 0.01 1.17 0.02 70 1012.0
20260906132800 72 180 3.5 5.2 0.01 1.17 0.02 71 1011.9
20260906132029 71 149 3.5 5.2 0.01 1.17 0.02 71 1011.8
20260906131534 71 191 4.3 7.0 0.01 1.17 0.02 70 1011.7
20260906131528 71 175 3.5 7.0 0.01 1.17 0.02 71 1011.7
20260906130528 71 202 4.3 6.1 0.00 1.17 0.01 70 1011.6
20260906130029 72 190 4.3 6.1 0.00 1.17 0.01 69 1011.5
20260906125741 72 195 5.2 7.0 0.00 1.17 0.01 68 1011.4
20260906125614 72 167 4.3 7.0 0.00 1.17 0.01 69 1011.5
20260906124508 72 177 5.2 7.0 0.00 1.17 0.01 68 1011.4
20260906124006 72 185 5.2 7.8 0.00 1.17 0.01 67 1011.4
20260906123737 73 188 5.2 7.8 0.00 1.17 0.01 67 1011.4
20260906123011 73 204 5.2 7.8 0.00 1.17 0.01 68 1011.4
20260906123007 73 164 5.2 7.8 0.00 1.17 0.01 68 1011.4
20260906122006 73 194 4.3 7.0 0.00 1.17 0.01 68 1011.3
20260906121507 73 152 4.3 6.1 0.00 1.17 0.01 68 1011.2
20260906121007 73 193 4.3 7.0 0.00 1.17 0.01 67 1011.2
20260906120503 73 194 4.3 7.0 0.00 1.17 0.01 67 1011.1
20260906120002 73 141 3.5 7.0 0.00 1.17 0.01 67 1011.1
20260906115735 73 172 3.5 7.0 0.00 1.17 0.01 68 1011.1
20260906115000 74 167 3.5 5.2 0.00 1.17 0.01 67 1011.0
20260906114729 74 150 3.5 5.2 0.00 1.17 0.01 67 1011.0
20260906113957 74 179 3.5 5.2 0.00 1.17 0.01 67 1010.9
20260906113457 74 157 4.3 6.1 0.00 1.17 0.01 67 1010.8
20260906112955 74 167 4.3 7.0 0.00 1.17 0.01 65 1010.8
20260906112456 74 181 4.3 7.0 0.00 1.17 0.01 65 1010.7
20260906111954 74 159 4.3 6.1 0.00 1.17 0.01 66 1010.7
20260906111723 74 179 3.5 6.1 0.00 1.17 0.01 66 1010.7
20260906111221 75 206 3.5 6.1 0.00 1.17 0.01 65 1010.7
20260906110450 75 179 4.3 6.1 0.00 1.17 0.01 65 1010.7
20260906105955 75 170 4.3 7.0 0.00 1.17 0.01 65 1010.7
20260906105951 75 180 4.3 7.0 0.00 1.17 0.01 65 1010.7
20260906104948 75 165 4.3 6.1 0.00 1.17 0.01 66 1010.7
20260906104449 74 166 3.5 5.2 0.00 1.17 0.01 67 1010.7
20260906103948 74 187 2.6 4.3 0.00 1.17 0.01 68 1010.7
20260906103717 74 184 1.7 3.5 0.00 1.17 0.01 69 1010.8
20260906102947 74 165 1.7 2.6 0.00 1.17 0.01 69 1010.7
20260906102446 74 154 0.9 2.6 0.00 1.17 0.01 69 1010.7
20260906101946 74 132 0.0 2.6 0.00 1.17 0.01 68 1010.6
20260906101718 74 151 0.0 0.9 0.00 1.17 0.01 69 1010.6
20260906100940 75 150 1.7 3.5 0.00 1.17 0.01 68 1010.5
20260906100936 74 148 0.9 2.6 0.00 1.17 0.01 69 1010.6
20260906095934 74 108 1.7 3.5 0.00 1.17 0.01 67 1010.6
20260906095429 74 131 0.9 2.6 0.00 1.17 0.01 67 1010.6
20260906094924 74 114 1.7 3.5 0.00 1.17 0.01 68 1010.6
20260906094424 74 111 0.9 3.5 0.00 1.17 0.01 68 1010.7
20260906093926 74 95 0.9 2.6 0.00 1.17 0.01 69 1010.7
20260906093417 75 106 1.7 2.6 0.00 1.17 0.01 69 1010.6
20260906092912 75 130 1.7 3.5 0.00 1.17 0.01 69 1010.6
20260906092354 75 135 1.7 5.2 0.00 1.17 0.01 67 1010.6
20260906091850 75 131 2.6 5.2 0.00 1.17 0.01 67 1010.6
20260906091350 75 114 1.7 5.2 0.00 1.17 0.01 67 1010.6
20260906091121 75 112 1.7 3.5 0.00 1.17 0.01 67 1010.7
20260906090348 75 137 1.7 3.5 0.00 1.17 0.01 67 1010.7
20260906085839 75 131 2.6 3.5 0.00 1.17 0.01 67 1010.6
20260906085340 75 148 2.6 4.3 0.00 1.17 0.01 68 1010.6
20260906084838 75 151 2.6 4.3 0.00 1.17 0.01 67 1010.6
20260906084336 75 157 1.7 4.3 0.00 1.17 0.01 67 1010.5
20260906083836 75 161 1.7 3.5 0.00 1.17 0.01 68 1010.6
20260906083336 75 175 2.6 3.5 0.00 1.17 0.01 67 1010.6
20260906082838 76 200 3.5 5.2 0.00 1.17 0.01 65 1010.7
20260906082834 76 191 2.6 5.2 0.00 1.17 0.01 66 1010.6
20260906082103 76 183 3.5 5.2 0.00 1.17 0.01 64 1010.7
20260906081333 76 189 4.3 8.7 0.00 1.17 0.01 63 1010.7
20260906080832 76 200 4.3 8.7 0.00 1.17 0.01 62 1010.7
20260906080332 76 224 4.3 8.7 0.00 1.17 0.01 62 1010.8
20260906075830 76 236 3.5 7.8 0.00 1.17 0.01 64 1010.9
20260906075331 76 227 4.3 6.1 0.00 1.17 0.01 64 1010.8
20260906074830 76 203 4.3 7.0 0.00 1.17 0.01 63 1010.8
20260906074330 76 218 4.3 7.0 0.00 1.17 0.01 63 1010.8
20260906073830 76 220 4.3 7.0 0.00 1.17 0.01 62 1010.9
20260906073600 76 197 4.3 7.0 0.00 1.17 0.01 62 1010.9
20260906073436 76 262 4.3 7.8 0.00 1.17 0.01 62 1010.8
20260906072330 77 190 6.1 8.7 0.00 1.17 0.01 61 1010.7
20260906072326 77 193 5.2 7.8 0.00 1.17 0.01 62 1010.7
20260906071326 77 205 6.1 9.6 0.00 1.17 0.01 61 1010.6
20260906070826 77 174 5.2 9.6 0.00 1.17 0.01 61 1010.6
20260906070324 77 186 5.2 10.4 0.00 1.17 0.01 61 1010.6
20260906065824 77 179 6.1 10.4 0.00 1.17 0.01 61 1010.5
20260906065324 77 193 6.1 8.7 0.00 1.17 0.01 61 1010.6
20260906064824 77 202 5.2 7.8 0.00 1.17 0.01 61 1010.5
20260906064559 77 163 6.1 9.6 0.00 1.17 0.01 62 1010.6
20260906064322 77 165 7.0 9.6 0.00 1.17 0.01 61 1010.6
20260906063318 78 140 7.0 11.3 0.00 1.17 0.01 61 1010.5
20260906062819 78 153 7.0 11.3 0.00 1.17 0.01 60 1010.5
20260906062548 78 136 7.0 11.3 0.00 1.17 0.01 59 1010.4
20260906061812 78 143 7.8 11.3 0.00 1.17 0.01 59 1010.6
20260906061306 78 155 6.1 11.3 0.00 1.17 0.01 60 1010.6
20260906061038 77 143 5.2 7.8 0.00 1.17 0.01 63 1010.6
20260906060537 77 154 5.2 7.8 0.00 1.17 0.01 65 1010.6
20260906055806 77 155 5.2 7.0 0.04 1.17 0.01 65 1010.7
20260906055306 77 141 5.2 7.0 0.33 1.17 0.01 64 1010.7
20260906054803 77 134 5.2 7.0 1.49 1.17 0.01 64 1010.6
20260906054304 78 162 5.2 9.6 2.61 1.17 0.01 63 1010.6
20260906053804 78 173 5.2 9.6 3.89 1.17 0.01 64 1010.6
20260906053304 77 181 5.2 7.8 5.09 1.17 0.01 67 1010.5
20260906052802 76 164 4.3 7.8 5.96 1.17 0.01 71 1010.5
20260906052305 76 136 4.3 6.1 7.16 1.17 0.01 73 1010.5
20260906051759 76 156 3.5 5.2 8.36 1.17 0.01 72 1010.5
20260906051258 77 164 3.5 6.1 9.68 1.17 0.01 70 1010.5
20260906050757 77 157 4.3 7.8 1.07 1.17 0.01 68 1010.6
20260906050255 78 196 5.2 7.8 1.12 1.17 0.01 67 1010.6
20260906045752 78 202 4.3 7.8 1.12 1.17 1.17 67 1010.6
20260906045523 77 192 3.5 7.0 1.09 1.14 1.15 67 1010.6
20260906044752 77 202 3.5 5.2 9.76 1.02 1.02 68 1010.6
20260906044252 77 162 4.3 6.1 8.64 9.17 9.17 67 1010.6
20260906043750 78 203 4.3 7.0 7.36 7.89 8.01 67 1010.6
20260906043246 78 187 5.2 8.7 5.93 6.46 6.69 66 1010.7
20260906042744 78 205 5.2 8.7 4.93 5.46 5.66 64 1010.7
20260906042514 78 224 4.3 8.7 3.81 4.34 4.46 64 1010.7
20260906041743 78 228 3.5 6.1 2.53 3.06 3.42 66 1010.7
20260906041242 78 205 3.5 5.2 1.57 2.10 2.10 66 1010.7
20260906041013 78 209 3.5 7.0 0.11 0.64 1.02 66 1010.8
20260906040242 78 237 3.5 7.0 0.00 0.53 0.53 68 1010.8
20260906035742 77 216 3.5 7.0 0.00 0.53 0.53 67 1010.8
20260906035240 77 254 4.3 7.0 0.00 0.53 0.53 68 1010.8
20260906034740 77 215 6.1 9.6 0.01 0.53 0.53 68 1010.7
20260906034238 77 199 7.0 9.6 0.05 0.53 0.53 67 1010.6
20260906033738 77 210 7.0 9.6 0.09 0.53 0.53 67 1010.5
20260906033238 76 179 7.0 11.3 0.19 0.53 0.53 69 1010.6
20260906032738 76 198 7.8 13.0 0.26 0.53 0.53 69 1010.7
20260906032236 76 214 8.7 13.0 0.35 0.53 0.53 70 1010.7
20260906031734 75 202 7.8 13.0 0.46 0.53 0.53 70 1010.7
20260906031234 76 212 7.8 15.6 0.53 0.53 0.53 69 1010.7
20260906030734 75 167 9.6 15.6 0.53 0.53 0.53 68 1010.6
20260906030233 74 238 10.4 16.5 0.53 0.53 0.53 71 1010.5
20260906025734 74 219 10.4 20.0 0.53 0.53 0.53 72 1010.6
20260906025238 73 143 13.0 20.9 0.52 0.52 0.52 71 1010.3
20260906025235 74 194 10.4 20.0 0.53 0.53 0.53 68 1010.4
20260906024234 73 181 18.2 35.6 0.48 0.48 0.50 67 1010.1
20260906023727 73 195 23.5 40.0 0.42 0.42 0.43 68 1010.0
20260906023228 73 196 27.8 45.2 0.34 0.34 0.34 71 1010.1
20260906023001 74 194 23.5 45.2 0.27 0.27 0.27 68 1009.7
20260906022457 78 200 13.0 28.7 0.18 0.18 0.18 62 1009.7
20260906021726 81 191 10.4 18.2 0.06 0.06 0.07 57 1009.6
20260906021218 84 143 7.8 14.8 0.00 0.00 0.00 51 1009.4
20260906020719 85 141 6.1 14.8 0.00 0.00 0.00 46 1009.3
20260906020218 85 169 2.6 10.4 0.00 0.00 0.00 44 1009.2
20260906015716 86 264 0.9 9.6 0.00 0.00 0.00 44 1009.3
20260906015216 86 124 2.6 6.1 0.00 0.00 0.00 44 1009.1
20260906014714 86 314 3.5 9.6 0.00 0.00 0.00 43 1008.9
20260906014212 86 61 5.2 9.6 0.00 0.00 0.00 43 1008.4
20260906013711 86 108 6.1 10.4 0.00 0.00 0.00 44 1008.2
20260906013209 87 55 5.2 10.4 0.00 0.00 0.00 42 1008.2
20260906012711 91 24 2.6 8.7 0.00 0.00 0.00 34 1008.3
20260906012209 90 120 0.9 6.1 0.00 0.00 0.00 34 1008.1
20260906011711 90 14 0.9 3.5 0.00 0.00 0.00 34 1008.0
20260906011656 90 359 1.7 3.5 0.00 0.00 0.00 34 1008.0
20260906011150 90 2 1.7 3.5 0.00 0.00 0.00 35 1008.0
20260906010149 90 0 0.9 2.6 0.00 0.00 0.00 34 1007.8
20260906005639 90 352 0.9 2.6 0.00 0.00 0.00 34 1007.8
20260906005138 90 259 1.7 4.3 0.00 0.00 0.00 34 1007.9
20260906004635 90 301 4.3 7.8 0.00 0.00 0.00 34 1007.8
20260906004135 90 354 5.2 8.7 0.00 0.00 0.00 34 1007.7
20260906003636 90 335 7.0 11.3 0.00 0.00 0.00 34 1007.6
20260906003133 90 334 7.8 11.3 0.00 0.00 0.00 34 1007.6
20260906002635 90 342 8.7 15.6 0.00 0.00 0.00 34 1007.6
20260906002405 90 352 8.7 15.6 0.00 0.00 0.00 34 1007.6
20260906001632 91 345 8.7 13.0 0.00 0.00 0.00 33 1007.6
20260906001132 91 346 9.6 14.8 0.00 0.00 0.00 33 1007.6
20260906000631 91 350 7.0 14.8 0.00 0.00 0.00 33 1007.5
20260906000129 91 3 4.3 9.6 0.00 0.00 0.00 33 1007.6
20260905235630 93 294 3.5 11.3 0.00 0.00 0.00 31 1007.6
20260905235129 95 300 4.3 11.3 0.00 0.00 0.00 30 1007.5
20260905234628 95 207 6.1 11.3 0.00 0.00 0.00 28 1007.3
20260905234128 95 233 5.2 9.6 0.00 0.00 0.00 28 1007.1
20260905233859 95 132 5.2 10.4 0.00 0.00 0.00 28 1007.0
20260905233125 95 140 5.2 10.4 0.00 0.00 0.00 27 1007.0
20260905232626 96 124 6.1 11.3 0.00 0.00 0.00 27 1006.9
20260905232125 96 148 7.0 13.9 0.00 0.00 0.00 28 1007.0
20260905231626 96 160 5.2 13.9 0.00 0.00 0.00 28 1006.9
20260905231124 96 164 6.1 12.2 0.00 0.00 0.00 28 1006.9
20260905230624 95 70 7.0 12.2 0.00 0.00 0.00 28 1006.9
20260905230124 96 129 7.8 14.8 0.00 0.00 0.00 28 1006.9
20260905225624 96 158 7.8 14.8 0.00 0.00 0.00 28 1006.9
20260905225124 96 154 7.0 13.0 0.00 0.00 0.00 27 1006.8
20260905224855 96 219 7.0 13.0 0.00 0.00 0.00 27 1006.8
20260905224120 97 145 7.0 15.6 0.00 0.00 0.00 27 1006.9
20260905223617 97 126 7.0 15.6 0.00 0.00 0.00 27 1006.9
20260905223117 98 182 6.1 13.9 0.00 0.00 0.00 27 1006.9
20260905222618 97 175 7.0 13.0 0.00 0.00 0.00 27 1006.8
20260905222115 97 143 7.8 15.6 0.00 0.00 0.00 27 1006.9
20260905221619 96 188 7.0 13.0 0.00 0.00 0.00 28 1007.1
20260905221615 97 120 7.0 15.6 0.00 0.00 0.00 27 1007.0
20260905220615 97 159 7.8 14.8 0.00 0.00 0.00 28 1007.1
20260905220351 97 115 6.1 12.2 0.00 0.00 0.00 28 1007.2
20260905220115 97 131 7.8 14.8 0.00 0.00 0.00 28 1007.2
20260905215105 97 154 6.1 11.3 0.00 0.00 0.00 26 1007.2
20260905214604 97 136 5.2 10.4 0.00 0.00 0.00 25 1007.2
20260905214103 97 193 5.2 9.6 0.00 0.00 0.00 26 1007.2
20260905213832 97 159 6.1 12.2 0.00 0.00 0.00 27 1007.3
20260905213100 97 160 7.0 13.0 0.00 0.00 0.00 26 1007.4
20260905212600 97 176 7.0 13.0 0.00 0.00 0.00 26 1007.4
20260905212331 97 148 4.3 12.2 0.00 0.00 0.00 26 1007.5